Regional Weather Roundup
Issued by NWS

Home | Current Version | Previous Version | Graphics & Text | Print | Product List | Glossary On
Versions: 1 2 3 4 5 6 7 8 9 10 11 12 13 14 15 16 17 18 19 20 21 22 23 24 25 26 27
000
ASUS45 KCYS 231010
RWRWY

WYOMING REGIONAL WEATHER ROUNDUP
NATIONAL WEATHER SERVICE CHEYENNE WY
300 AM MST TUE JAN 23 2018

NOTE:  "FAIR" INDICATES FEW OR NO CLOUDS BELOW 12,000 FEET
WITH NO SIGNIFICANT WEATHER AND/OR OBSTRUCTIONS TO VISIBILITY.

WYZ001-231100-
YELLOWSTONE NATIONAL PARK

CITY           SKY/WX    TMP DP  RH WIND       PRES   REMARKS
LK YELLOWSTONE   N/A     -4  -7  87 CALM      30.17R
W YELLOWSTONE  NOT AVBL

$$
WYZ002>013-054>058-071-098>099-231100-
NORTHERN WYOMING

CITY           SKY/WX    TMP DP  RH WIND       PRES   REMARKS
JACKSON        LGT SNOW  16  13  88 CALM        N/A  FOG
CODY           FAIR      29  11  47 W8        30.13R WCI  21
GREYBULL       FAIR       7   5  91 CALM      30.18S
WORLAND        FAIR       3   1  91 CALM      30.16R
SHERIDAN       FAIR      22  16  78 NW5       30.10R WCI  16
BUFFALO        FAIR      24  10  55 W8        30.09S WCI  15
GILLETTE       FAIR      25  17  72 W14       30.09R WCI  13
HULETT         CLOUDY    30  23  74 SW9       30.08S WCI  22
NEWCASTLE      FAIR      21  18  86 NW5       30.11S WCI  15

$$
WYZ014>020-022>026-101>103-231100-
CENTRAL WYOMING

CITY           SKY/WX    TMP DP  RH WIND       PRES   REMARKS
BIG PINEY      CLOUDY     2  -2  83 E5        30.20R WCI  -8
PINEDALE       FLURRIES   3   1  92 W7        30.21R WCI  -9
DUBOIS         PTSUNNY   18  10  73 NW14      30.11R WCI   4
LANDER         FAIR      16   5  62 W9        30.14R WCI   4
RIVERTON       FAIR       1  -3  83 CALM      30.15R
CASPER         FAIR      17  13  84 SW12      30.13R WCI   4
DOUGLAS        MOCLDY    18  13  80 NW5       30.13S WCI  11

$$
WYZ021-027>030-104>119-231100-
SOUTHERN WYOMING

CITY           SKY/WX    TMP DP  RH WIND       PRES   REMARKS
EVANSTON       CLOUDY    21  18  88 SW10      30.23S WCI  10
FORT BRIDGER   CLOUDY    23  18  80 W10       30.26R WCI  12
ROCK SPRINGS   FAIR      16  11  80 W13       30.21R WCI   2
DIXON            N/A     20  15  80 SW6       30.26S WCI  13
RAWLINS        FLURRIES  20  14  77 W23G30    30.14S WCI   3
SARATOGA       PTSUNNY   21  14  73 W13G21    30.16R WCI   9
LARAMIE        CLOUDY    17  12  80 SW17      30.10R WCI   1
CHEYENNE       FAIR      24  12  60 W18G28    30.10R WCI  10
TORRINGTON     FAIR      24  16  71 NW8       30.13R WCI  15

$$




USA.gov is the U.S. government's official web portal to all federal, state and local government web resources and services.